This is the latest recevied weather packets stored in our database for station/object N7TUG-8. If no packets are shown the sender has not sent any weather packets the latest 1 day(s).
| Time | Temp. | Humidity | Pressure | Rain* | Wind** | Luminosity | Snow |
|---|---|---|---|---|---|---|---|
| 1777973306 | 13.33° C | 88% | 1012.5 hPa | 0 mm | 3.13 m/s, 128° | - | - |
| 1777972715 | 13.33° C | 88% | 1012.3 hPa | 0 mm | 2.68 m/s, 135° | - | - |
| 1777972446 | 13.33° C | 88% | 1012.4 hPa | 0 mm | 2.68 m/s, 128° | - | - |
| 1777971931 | 13.33° C | 88% | 1012.4 hPa | 0 mm | 2.24 m/s, 127° | - | - |
| 1777971636 | 13.33° C | 88% | 1012.4 hPa | 0 mm | 2.68 m/s, 118° | - | - |
| 1777971026 | 13.33° C | 88% | 1012.3 hPa | 0 mm | 2.24 m/s, 121° | - | - |
| 1777970916 | 13.33° C | 87% | 1012.3 hPa | 0 mm | 2.24 m/s, 125° | - | - |
| 1777970171 | 13.33° C | 87% | 1012.2 hPa | 0 mm | 2.24 m/s, 123° | - | - |
| 1777970032 | 13.33° C | 88% | 1012.1 hPa | 0 mm | 2.24 m/s, 130° | - | - |
| 1777969291 | 13.33° C | 88% | 1012.1 hPa | 0 mm | 2.68 m/s, 128° | - | - |
| 1777969243 | 13.33° C | 88% | 1012.1 hPa | 0 mm | 2.68 m/s, 128° | - | - |
| 1777968501 | 13.33° C | 87% | 1012.2 hPa | 0 mm | 3.13 m/s, 132° | - | - |
| 1777968416 | 13.33° C | 87% | 1012.2 hPa | 0 mm | 3.13 m/s, 132° | - | - |
| 1777967615 | 13.89° C | 86% | 1012.1 hPa | 0 mm | 1.79 m/s, 135° | - | - |
| 1777966731 | 13.89° C | 86% | 1011.8 hPa | 0 mm | 2.24 m/s, 116° | - | - |
| 1777966184 | 13.89° C | 85% | 1011.7 hPa | 0 mm | 2.24 m/s, 123° | - | - |
| 1777965897 | 13.89° C | 85% | 1011.7 hPa | 0 mm | 2.24 m/s, 123° | - | - |
| 1777965866 | 13.89° C | 85% | 1011.7 hPa | 0 mm | 2.24 m/s, 123° | - | - |
| 1777965072 | 13.89° C | 85% | 1011.5 hPa | 0 mm | 2.24 m/s, 128° | - | - |
| 1777964975 | 13.89° C | 85% | 1011.5 hPa | 0 mm | 2.24 m/s, 126° | - | - |
* Rain latest hour (hover to see other rain measurements)
** Current wind speed in m/s (hover to see current wind gust speed)